• în Republica Moldova
  • Lista ţărilor
  • Pe 7 zile
  • Temperatura apei
  • Hartă satelitară
  • Meteo pe hartă
  • Widget-uri
  • user-avatar
    Intrare

    Meteo pe oră la Durres

    Astăzi, 24 Iunie, Sâmbătă

    Timp Temperatura Precipitaţii Vânt Presiune Umiditate
    00:00 +20°C° 0 mm 0 m/s 761 mmHg 75%
    01:00 +19°C° 0 mm 0 m/s 760 mmHg 75%
    02:00 +21°C° 0 mm 1 m/s 760 mmHg 75%
    03:00 +21°C° 0 mm 1 m/s 760 mmHg 75%
    04:00 +21°C° 0 mm 1 m/s 760 mmHg 75%
    05:00 +24°C° 0 mm 1 m/s 760 mmHg 65%
    06:00 +27°C° 0 mm 1 m/s 760 mmHg 54%
    07:00 +30°C° 0 mm 1 m/s 760 mmHg 42%
    08:00 +32°C° 0 mm 1 m/s 760 mmHg 38%
    09:00 +34°C° 0 mm 1 m/s 760 mmHg 34%
    10:00 +37°C° 0 mm 2 m/s 760 mmHg 30%
    11:00 +37°C° 0 mm 2 m/s 760 mmHg 29%
    12:00 +37°C° 0 mm 3 m/s 760 mmHg 29%
    13:00 +38°C° 0 mm 4 m/s 759 mmHg 28%
    14:00 +37°C° 0 mm 4 m/s 759 mmHg 31%
    15:00 +36°C° 0 mm 4 m/s 759 mmHg 34%
    16:00 +35°C° 0 mm 4 m/s 759 mmHg 36%
    17:00 +33°C° 0 mm 3 m/s 759 mmHg 46%
    18:00 +29°C° 0 mm 3 m/s 759 mmHg 56%
    19:00 +27°C° 0 mm 2 m/s 759 mmHg 66%
    20:00 +26°C° 0 mm 1 m/s 759 mmHg 66%
    21:00 +25°C° 0 mm 1 m/s 760 mmHg 67%
    22:00 +23°C° 0 mm 0 m/s 760 mmHg 67%
    23:00 +25°C° 0 mm 1 m/s 760 mmHg 66%

    Mâine, 25 Iunie, Duminică

    Timp Temperatura Precipitaţii Vânt Presiune Umiditate
    00:00 +25°C° 0 mm 1 m/s 760 mmHg 66%
    01:00 +24°C° 0 mm 2 m/s 760 mmHg 65%
    02:00 +24°C° 0,1 mm 2 m/s 760 mmHg 65%
    03:00 +24°C° 0,1 mm 2 m/s 760 mmHg 65%
    04:00 +24°C° 0,1 mm 2 m/s 759 mmHg 65%
    05:00 +26°C° 0 mm 1 m/s 759 mmHg 60%
    06:00 +28°C° 0 mm 1 m/s 759 mmHg 55%
    07:00 +30°C° 0 mm 1 m/s 759 mmHg 50%
    08:00 +33°C° 0 mm 1 m/s 759 mmHg 44%
    09:00 +35°C° 0 mm 1 m/s 759 mmHg 38%
    10:00 +37°C° 0 mm 1 m/s 759 mmHg 33%
    11:00 +38°C° 0 mm 2 m/s 759 mmHg 32%
    12:00 +38°C° 0 mm 2 m/s 759 mmHg 31%
    13:00 +38°C° 0 mm 3 m/s 758 mmHg 31%
    14:00 +37°C° 0 mm 3 m/s 758 mmHg 33%
    15:00 +37°C° 0 mm 3 m/s 758 mmHg 35%
    16:00 +36°C° 0 mm 3 m/s 757 mmHg 37%
    17:00 +32°C° 0 mm 2 m/s 757 mmHg 47%
    18:00 +30°C° 0 mm 2 m/s 757 mmHg 58%
    19:00 +27°C° 0 mm 1 m/s 757 mmHg 69%
    20:00 +26°C° 0 mm 2 m/s 758 mmHg 70%
    21:00 +25°C° 0 mm 2 m/s 758 mmHg 71%
    22:00 +24°C° 0 mm 2 m/s 758 mmHg 72%
    23:00 +24°C° 0 mm 2 m/s 758 mmHg 72%

    Poimâine, 26 Iunie, Luni

    Timp Temperatura Precipitaţii Vânt Presiune Umiditate
    00:00 +24°C° 0 mm 2 m/s 758 mmHg 73%
    01:00 +23°C° 0 mm 2 m/s 757 mmHg 74%
    02:00 +23°C° 0 mm 2 m/s 757 mmHg 75%
    03:00 +21°C° 0 mm 2 m/s 757 mmHg 76%
    04:00 +21°C° 0 mm 2 m/s 757 mmHg 77%
    05:00 +25°C° 0 mm 2 m/s 757 mmHg 67%
    06:00 +28°C° 0 mm 2 m/s 757 mmHg 57%
    07:00 +31°C° 0 mm 2 m/s 757 mmHg 46%
    08:00 +32°C° 0 mm 2 m/s 757 mmHg 42%
    09:00 +34°C° 0 mm 2 m/s 757 mmHg 38%
    10:00 +36°C° 0 mm 2 m/s 757 mmHg 34%
    11:00 +36°C° 0 mm 3 m/s 757 mmHg 34%
    12:00 +37°C° 0 mm 3 m/s 757 mmHg 34%
    13:00 +37°C° 0 mm 3 m/s 757 mmHg 33%
    14:00 +36°C° 0 mm 3 m/s 757 mmHg 35%
    15:00 +36°C° 0 mm 2 m/s 756 mmHg 37%
    16:00 +35°C° 0 mm 2 m/s 756 mmHg 39%
    17:00 +31°C° 0 mm 2 m/s 757 mmHg 50%
    18:00 +29°C° 0 mm 1 m/s 757 mmHg 61%
    19:00 +26°C° 0 mm 1 m/s 757 mmHg 72%
    20:00 +25°C° 0 mm 1 m/s 757 mmHg 75%
    21:00 +24°C° 0 mm 1 m/s 758 mmHg 79%
    22:00 +23°C° 0 mm 1 m/s 758 mmHg 82%
    23:00 +23°C° 0 mm 1 m/s 758 mmHg 82%

    27 Iunie, Marţi

    Timp Temperatura Precipitaţii Vânt Presiune Umiditate
    00:00 +21°C° 0 mm 0 m/s 758 mmHg 82%
    01:00 +20°C° 0 mm 0 m/s 758 mmHg 82%
    02:00 +20°C° 0 mm 0 m/s 758 mmHg 82%
    03:00 +20°C° 0 mm 0 m/s 758 mmHg 82%
    04:00 +19°C° 0 mm 0 m/s 758 mmHg 83%
    05:00 +23°C° 0 mm 0 m/s 758 mmHg 71%
    06:00 +26°C° 0 mm 0 m/s 758 mmHg 60%
    07:00 +29°C° 0 mm 0 m/s 758 mmHg 49%
    08:00 +32°C° 0 mm 1 m/s 758 mmHg 43%
    09:00 +34°C° 0 mm 1 m/s 758 mmHg 38%
    10:00 +35°C° 0 mm 1 m/s 758 mmHg 33%
    11:00 +37°C° 0 mm 2 m/s 758 mmHg 32%
    12:00 +37°C° 0 mm 2 m/s 758 mmHg 31%
    13:00 +38°C° 0 mm 3 m/s 758 mmHg 30%
    14:00 +37°C° 0 mm 3 m/s 757 mmHg 32%
    15:00 +36°C° 0 mm 2 m/s 757 mmHg 33%
    16:00 +36°C° 0 mm 2 m/s 757 mmHg 35%
    17:00 +32°C° 0 mm 2 m/s 757 mmHg 46%
    18:00 +29°C° 0 mm 1 m/s 757 mmHg 57%
    19:00 +26°C° 0 mm 1 m/s 757 mmHg 69%
    20:00 +25°C° 0 mm 1 m/s 758 mmHg 70%
    21:00 +24°C° 0 mm 2 m/s 758 mmHg 72%
    22:00 +24°C° 0 mm 2 m/s 758 mmHg 74%
    23:00 +23°C° 0 mm 2 m/s 758 mmHg 74%

    28 Iunie, Miercuri

    Timp Temperatura Precipitaţii Vânt Presiune Umiditate
    00:00 +23°C° 0 mm 2 m/s 758 mmHg 75%
    01:00 +21°C° 0 mm 2 m/s 758 mmHg 75%
    02:00 +21°C° 0 mm 2 m/s 758 mmHg 75%
    03:00 +21°C° 0 mm 2 m/s 758 mmHg 74%
    04:00 +21°C° 0 mm 3 m/s 758 mmHg 74%
    05:00 +25°C° 0 mm 3 m/s 758 mmHg 62%
    06:00 +28°C° 0 mm 3 m/s 758 mmHg 51%
    07:00 +31°C° 0 mm 3 m/s 758 mmHg 40%
    08:00 +34°C° 0 mm 3 m/s 758 mmHg 36%
    09:00 +35°C° 0 mm 3 m/s 758 mmHg 33%
    10:00 +37°C° 0 mm 3 m/s 758 mmHg 30%
    11:00 +37°C° 0 mm 3 m/s 758 mmHg 30%
    12:00 +38°C° 0 mm 3 m/s 758 mmHg 29%
    13:00 +38°C° 0 mm 3 m/s 757 mmHg 28%
    14:00 +38°C° 0 mm 3 m/s 757 mmHg 30%
    15:00 +37°C° 0 mm 3 m/s 757 mmHg 32%
    16:00 +36°C° 0 mm 3 m/s 757 mmHg 34%
    17:00 +34°C° 0 mm 3 m/s 757 mmHg 45%
    18:00 +30°C° 0 mm 2 m/s 757 mmHg 56%
    19:00 +27°C° 0 mm 1 m/s 758 mmHg 66%
    20:00 +26°C° 0 mm 1 m/s 758 mmHg 70%
    21:00 +25°C° 0 mm 1 m/s 758 mmHg 73%
    22:00 +24°C° 0 mm 1 m/s 759 mmHg 77%
    23:00 +23°C° 0 mm 1 m/s 758 mmHg 77%

    29 Iunie, Joi

    Timp Temperatura Precipitaţii Vânt Presiune Umiditate
    00:00 +23°C° 0 mm 1 m/s 758 mmHg 77%
    01:00 +23°C° 0 mm 1 m/s 758 mmHg 78%
    02:00 +23°C° 0 mm 1 m/s 758 mmHg 76%
    03:00 +23°C° 0 mm 2 m/s 758 mmHg 75%
    04:00 +23°C° 0 mm 2 m/s 758 mmHg 74%
    05:00 +26°C° 0 mm 1 m/s 758 mmHg 64%
    06:00 +29°C° 0 mm 1 m/s 758 mmHg 54%
    07:00 +32°C° 0 mm 1 m/s 758 mmHg 44%
    08:00 +34°C° 0 mm 1 m/s 758 mmHg 39%
    09:00 +36°C° 0 mm 1 m/s 758 mmHg 34%
    10:00 +39°C° 0 mm 1 m/s 758 mmHg 29%
    11:00 +39°C° 0 mm 2 m/s 758 mmHg 28%
    12:00 +40°C° 0 mm 2 m/s 758 mmHg 27%
    13:00 +40°C° 0 mm 3 m/s 758 mmHg 26%
    14:00 +40°C° 0 mm 3 m/s 757 mmHg 27%
    15:00 +39°C° 0 mm 3 m/s 757 mmHg 29%
    16:00 +38°C° 0 mm 3 m/s 757 mmHg 30%
    17:00 +35°C° 0 mm 3 m/s 757 mmHg 41%
    18:00 +31°C° 0 mm 2 m/s 757 mmHg 51%
    19:00 +28°C° 0 mm 2 m/s 757 mmHg 62%
    20:00 +27°C° 0 mm 2 m/s 757 mmHg 63%
    21:00 +27°C° 0 mm 3 m/s 758 mmHg 64%
    22:00 +26°C° 0 mm 3 m/s 758 mmHg 64%
    23:00 +25°C° 0 mm 3 m/s 758 mmHg 65%
    Arată mai mult